Cucuta, Colombia

11:03 PM -05 on June 26, 2017 (GMT -0500)
Camilo Daza International

Weather History for SKCC - October, 2013

Change the Weather History Date:

Wednesday, October 16, 2013

  Actual Average (SVSA) Record (SVSA)
Temperature  
Mean Temperature 82 °F -  
Max Temperature 91 °F 90 °F 97 °F (2015)
Min Temperature 74 °F 71 °F 71 °F (1999)
Cooling Degree Days 18    
Growing Degree Days 32 (Base 50)    
Moisture  
Dew Point 71 °F    
Average Humidity 69    
Maximum Humidity 89    
Minimum Humidity 48    
Precipitation  
Precipitation 0.00 in 0.17 in - ()
Sea Level Pressure  
Sea Level Pressure 29.93 in    
Wind  
Wind Speed 3 mph ()    
Max Wind Speed 12 mph    
Max Gust Speed -    
Visibility 6.6 miles    
Events Rain , Thunderstorm    
Averages and records for this station are not official NWS values.
T = Trace of Precipitation, MM = Missing Value Source: Averaged Metar Reports

Daily Weather History Graph

Daily Weather History Graph

Search for Another Location

Airport or City:

Trip Planner

Search our weather history database for the weather conditions in past years. The results will help you decide how hot, cold, wet, or windy it might be!

Date:

Astronomy

Oct. 16, 2013 Rise Set
Actual Time 5:37 AM -05 5:33 PM -05
Civil Twilight 5:16 AM -05 5:54 PM -05
Nautical Twilight 4:51 AM -05 6:19 PM -05
Astronomical Twilight 4:27 AM -05 6:43 PM -05
Moon 3:52 PM -05 (10/16) 3:27 AM -05 (10/16)
Length of Visible Light 12h 38m
Length of Day
11h 56m
Waxing Gibbous, 94% of the Moon is Illuminated
Oct 16
Waxing Gibbous
Oct 18
Full
Oct 26
Last Quarter
Nov 3
New
Nov 10
First Quarter

Hourly Weather History & Observations

Time (-05) Temp. Heat Index Dew Point Humidity Pressure Visibility Wind Dir Wind Speed Gust Speed Precip Events Conditions
5:00 AM - - - N/A% 29.92 in 6.2 mi Calm Calm - N/A   Scattered Clouds
5:30 AM - - - N/A% 29.92 in 6.2 mi Calm Calm - N/A   Scattered Clouds
6:00 AM 77.0 °F - 71.6 °F 83% 29.94 in 6.2 mi Calm Calm - N/A   Scattered Clouds
7:00 AM 75 °F - 72 °F 86%  in 6 mi NNE 4.5 mph - -   Haze
7:00 AM 75.2 °F - 71.6 °F 89% 29.98 in 6.2 mi NNE 4.6 mph - N/A   Scattered Clouds
8:00 AM 77.0 °F - 69.8 °F 78% 30.01 in 6.2 mi Calm Calm - N/A   Scattered Clouds
9:00 AM 78.8 °F - 71.6 °F 78% 30.01 in 5.0 mi Calm Calm - N/A   Scattered Clouds
10:00 AM 82 °F - 68 °F 55%  in 6 mi SW 11.2 mph - -   Partly Cloudy
10:00 AM 82.4 °F 85.4 °F 68.0 °F 62% 30.01 in 6.2 mi SW 11.5 mph - N/A   Scattered Clouds
11:00 AM 84.2 °F 87.3 °F 68.0 °F 58% 29.98 in 6.2 mi North 4.6 mph - N/A   Scattered Clouds
12:00 PM 86.0 °F 90.4 °F 69.8 °F 58% 29.93 in 6.2 mi North 6.9 mph - N/A   Mostly Cloudy
1:00 PM 86 °F - 71 °F 52%  in 11 mi 2.2 mph - -   Overcast
1:00 PM 86.0 °F 91.8 °F 71.6 °F 62% 29.89 in 6.2 mi Variable 2.3 mph - N/A   Mostly Cloudy
2:00 PM 87.8 °F 92.6 °F 69.8 °F 55% 29.85 in 6.2 mi North 9.2 mph - N/A   Scattered Clouds
3:00 PM 89.6 °F 94.7 °F 69.8 °F 52% 29.82 in 6.2 mi North 10.4 mph - N/A   Scattered Clouds
4:00 PM 88 °F - 71 °F 48%  in 11 mi North 6.7 mph - -   Partly Cloudy
4:00 PM 87.8 °F 93.8 °F 71.6 °F 58% 29.82 in 6.2 mi North 5.8 mph - N/A   Scattered Clouds
5:00 PM 86.0 °F 90.4 °F 69.8 °F 58% 29.83 in 6.2 mi North 6.9 mph - N/A   Scattered Clouds
6:00 PM 84.2 °F 90.9 °F 73.4 °F 70% 29.87 in 6.2 mi NNE 4.6 mph - N/A   Scattered Clouds
7:00 PM 82 °F - 73 °F 68%  in 9 mi NNW 4.5 mph - -   Partly Cloudy
7:00 PM 82.4 °F 88.2 °F 73.4 °F 74% 29.92 in 6.2 mi NNW 4.6 mph - N/A Thunderstorm Thunderstorm
8:00 PM 80.6 °F 85.4 °F 73.4 °F 79% 29.95 in 6.2 mi North 6.9 mph - N/A Thunderstorm Thunderstorm
9:00 PM 78.8 °F - 71.6 °F 78% 29.98 in 6.2 mi North 4.6 mph - N/A Thunderstorm Thunderstorm
10:00 PM 76 °F - 71 °F 80%  in 6 mi West 4.5 mph - - Rain , Thunderstorm Thunderstorms and Rain
10:00 PM 75.2 °F - 71.6 °F 89% 30.00 in 6.2 mi West 4.6 mph - N/A Rain , Thunderstorm Light Thunderstorms and Rain
11:00 PM 75.2 °F - 71.6 °F 89% 30.00 in 6.2 mi Calm Calm - N/A   Scattered Clouds